Regional Weather Roundup
Issued by NWS

Home | Current Version | Previous Version | Graphics & Text | Print | Product List | Glossary On
Versions: 1 2 3 4 5 6 7 8 9 10 11 12 13 14 15 16 17 18 19 20 21 22 23 24 25 26 27 28 29 30 31 32 33 34 35 36 37 38 39 40 41 42 43 44 45 46 47 48 49 50
000
ASUS43 KFSD 220210
RWRSD

WEATHER ROUNDUP FOR SOUTH DAKOTA
NATIONAL WEATHER SERVICE SIOUX FALLS SD
800 PM CST SAT JAN 21 2017

NOTE: "FAIR" INDICATES FEW OR NO CLOUDS BELOW 12,000 FEET WITH NO
SIGNIFICANT WEATHER AND/OR OBSTRUCTIONS TO VISIBILITY.


SDZ001>005-009-010-012>017-220300-
NORTHWEST AND NORTH CENTRAL SOUTH DAKOTA

CITY           SKY/WX    TMP DP  RH WIND       PRES   REMARKS
BUFFALO          N/A     28  23  81 W7        29.49R WCI  21
FAITH            N/A     25  23  92 NW10      29.53R WCI  15
MOBRIDGE       CLOUDY    22  19  89 CALM      29.51R
$$

SDZ012>016-024>037-041>051-057-063-072>074-220300-
SOUTHWEST AND SOUTH CENTRAL SOUTH DAKOTA

CITY           SKY/WX    TMP DP  RH WIND       PRES   REMARKS
RAPID CTY ARPT CLEAR     28  24  85 N8        29.56R WCI  20
PIERRE         CLEAR     22  20  92 CALM      29.53R
CUSTER         CLOUDY    29  25  85 CALM      29.52R
ELLSWORTH AFB  CLEAR     32  27  80 NW8       29.55R WCI  25
PHILIP         CLEAR     30  27  88 W10       29.56R WCI  21
PINE RIDGE     CLOUDY    23  21  92 CALM      29.56R
SPEARFISH      FAIR      28  21  74 CALM      29.57R
WINNER         FAIR      32  29  88 CALM      29.54R
$$

SDZ004>011-016>023-039-040-220300-
NORTHEAST SOUTH DAKOTA

CITY           SKY/WX    TMP DP  RH WIND       PRES   REMARKS
ABERDEEN       CLOUDY    32  28  85 W3        29.52R
WATERTOWN      CLOUDY    30  29  96 NW8       29.49R WCI  22
BROOKINGS      CLOUDY    31  29  92 W8        29.50R WCI  23
SISSETON         N/A     33  33 100 CALM      29.50R
$$

SDZ017-020-022-023-036>040-048>070-220300-
SOUTHEAST SOUTH DAKOTA

CITY           SKY/WX    TMP DP  RH WIND       PRES   REMARKS
SIOUX FALLS    CLOUDY    32  29  88 NW9       29.51R WCI  24
HURON          CLOUDY    31  29  92 NW7       29.53R WCI  24
CHAMBERLAIN    CLEAR     29  29 100 N5        29.54R WCI  24
MITCHELL       CLOUDY    33  30  88 NW7       29.54R WCI  27
YANKTON        CLEAR     30  27  86 W5        29.54R WCI  25
$$

ABBREVIATIONS USED IN REMARKS
   TC - TEMPERATURE IN CELSIUS
  WCI - WIND CHILL INDEX
   HX - HEAT INDEX
  VSB - VISIBILITY




USA.gov is the U.S. government's official web portal to all federal, state and local government web resources and services.